Weather Roundup
Issued by NWS Corpus Christi, TX

Home | Current Version | Previous Version | Text Only | Print | Product List | Glossary On
Versions: 1 2 3 4 5 6 7 8 9 10 11 12 13 14 15 16 17 18 19 20 21 22 23 24 25 26 27 28 29 30 31 32 33 34 35 36 37 38 39 40 41 42 43 44 45 46 47 48 49 50
000
ASUS44 KCRP 050610
HRRCRP

SOUTH TEXAS REGIONAL WEATHER ROUNDUP
NATIONAL WEATHER SERVICE CORPUS CHRISTI TX
100 AM CDT THU MAY 05 2016


TXZ229>244-050700-
...CORPUS CHRISTI AREA OBSERVATIONS...

CITY           SKY/WX    TMP DP  RH WIND       PRES   REMARKS
CORPUS CHRISTI CLEAR     66  59  78 SW6       30.03S
NAS CORPUS CHR CLEAR     68  64  87 SW9       30.02S
ROCKPORT       CLEAR     68  61  78 SW6       30.02R
KINGSVILLE NAS CLEAR     63  60  90 S9        30.03S
ALICE          PTCLDY    62  54  74 VRB6      30.04R
FALFURRIAS     CLEAR     64  53  68 CALM      30.05R
$$

...VICTORIA AREA OBSERVATIONS...

CITY           SKY/WX    TMP DP  RH WIND       PRES   REMARKS
VICTORIA       CLEAR     66  60  81 SW9       30.02R
BEEVILLE       FAIR      66  59  80 S5        30.03S
PLEASANTON     NOT AVBL
SAN ANTONIO    CLEAR     64  48  56 W5        30.05R
$$

...LAREDO AREA OBSERVATIONS...

CITY           SKY/WX    TMP DP  RH WIND       PRES   REMARKS
LAREDO         CLEAR     71  50  47 SE7       30.05R
COTULLA        CLEAR     72  41  32 S9        30.04R
DEL RIO        CLEAR     64  52  64 N6        30.06R
MCALLEN        PTCLDY    67  59  75 S5        30.06S
HEBBRONVILLE   CLEAR     64  49  58 SW5       30.07R
$$

...OTHER TEXAS OBSERVATIONS...

CITY           SKY/WX    TMP DP  RH WIND       PRES   REMARKS
BROWNSVILLE    CLEAR     63  61  93 S3        30.05S
HOUSTON        CLEAR     63  57  81 W3        29.98S
COL. STATION   CLEAR     63  56  78 CALM      30.00S
AUSTIN         CLEAR     59  53  80 W5        30.03S
WACO           CLEAR     57  52  83 SW7       30.01S
FORT WORTH     CLEAR     66  53  63 N9        30.00R
WICHITA FALLS  CLEAR     62  51  67 NE6       30.04R
LUBBOCK        CLEAR     57  35  43 SE3       30.14S
EL PASO        CLEAR     70  20  15 SE6       30.12S
$$

...MARINE OBSERVATIONS...

STATION/POSITION TIME  SKY/WX   TEMP    WIND        PRES    VSBY  WAVE   SWELL
                                AIR SEA DIR/SP/G                  HT/PER HT/PER
                 (UTC)          (F)     (DEG/KT/KT) (MB)    (MI)  (FT/S) (FT/S)
PORT ARANSAS     0600            73 77  230/ 10/ 12 1017.2R
BUOY 90 E PORT A 0550            75 77  220/ 10/ 12 1015.4F         1/ 5
BUOY 45 SE BAFFI 0550            74 74  200/ 12/ 14 1016.0F         2/ 6
BUOY 200 E PT IS 0550                                 N/A           4/ 6   3/ 6
BUOY 15 E GALVES 0550            74 75  240/ 10/ 10 1014.4S         1/ 3
$$




USA.gov is the U.S. government's official web portal to all federal, state and local government web resources and services.